Blythe, CA

10:21 PM PDT on May 23, 2017 (GMT -0700)
Blythe

Weather History for KBLH - April, 2012

Change the Weather History Date:

Sunday, April 15, 2012

  Actual Average Record
Temperature  
Mean Temperature 63 °F -  
Max Temperature 79 °F 83 °F 100 °F (1984)
Min Temperature 48 °F 53 °F 46 °F (1970)
Degree Days  
Heating Degree Days 2    
Growing Degree Days 13 (Base 50)    
Moisture  
Dew Point 35 °F    
Average Humidity 37    
Maximum Humidity 61    
Minimum Humidity 20    
Precipitation  
Precipitation 0.00 in - - ()
Sea Level Pressure  
Sea Level Pressure 30.04 in    
Wind  
Wind Speed 5 mph (SE)    
Max Wind Speed 8 mph    
Max Gust Speed -    
Visibility 10 miles    
Events      
Averages and records for this station are not official NWS values.
T = Trace of Precipitation, MM = Missing Value Source: NWS Daily Summary

Daily Weather History Graph

Daily Weather History Graph

Search for Another Location

Airport or City:

Trip Planner

Search our weather history database for the weather conditions in past years. The results will help you decide how hot, cold, wet, or windy it might be!

Date:

Astronomy

Apr. 15, 2012 Rise Set
Actual Time 6:07 AM PDT 7:10 PM PDT
Civil Twilight 5:42 AM PDT 7:35 PM PDT
Nautical Twilight 5:11 AM PDT 8:06 PM PDT
Astronomical Twilight 4:40 AM PDT 8:37 PM PDT
Moon 2:52 AM PDT (4/15) 2:23 PM PDT (4/15)
Length of Visible Light 13h 53m
Length of Day
13h 02m
Waning Crescent, 26% of the Moon is Illuminated
Apr 15
Waning Crescent
Apr 21
New
Apr 29
First Quarter
May 5
Full
May 12
Last Quarter

Hourly Weather History & Observations

Time (PDT) Temp. Dew Point Humidity Pressure Visibility Wind Dir Wind Speed Gust Speed Precip Events Conditions
12:52 AM 57.9 °F 36.0 °F 44% 29.99 in 10.0 mi SW 8.1 mph - N/A   Mostly Cloudy
1:52 AM 54.0 °F 37.0 °F 53% 29.99 in 10.0 mi SSE 4.6 mph - N/A   Scattered Clouds
2:52 AM 52.0 °F 37.9 °F 59% 30.00 in 10.0 mi SSE 3.5 mph - N/A   Clear
3:52 AM 51.1 °F 37.0 °F 59% 30.01 in 10.0 mi SSW 3.5 mph - N/A   Clear
4:52 AM 48.9 °F 36.0 °F 61% 30.02 in 10.0 mi NW 6.9 mph - N/A   Clear
5:52 AM 48.9 °F 36.0 °F 61% 30.04 in 10.0 mi NNW 4.6 mph - N/A   Clear
6:52 AM 50.0 °F 36.0 °F 59% 30.06 in 10.0 mi NW 4.6 mph - N/A   Clear
7:52 AM 54.0 °F 37.0 °F 53% 30.09 in 10.0 mi Calm Calm - N/A   Clear
8:52 AM 60.1 °F 37.0 °F 42% 30.11 in 10.0 mi NNE 3.5 mph - N/A   Clear
9:52 AM 63.0 °F 35.1 °F 35% 30.11 in 10.0 mi Variable 4.6 mph - N/A   Clear
10:52 AM 66.9 °F 35.1 °F 31% 30.11 in 10.0 mi North 4.6 mph - N/A   Clear
11:52 AM 69.1 °F 34.0 °F 27% 30.10 in 10.0 mi Calm Calm - N/A   Clear
12:52 PM 73.0 °F 35.1 °F 25% 30.08 in 10.0 mi ENE 3.5 mph - N/A   Clear
1:52 PM 73.9 °F 35.1 °F 24% 30.05 in 10.0 mi East 5.8 mph - N/A   Clear
3:52 PM 77.0 °F 35.1 °F 22% 30.01 in 10.0 mi East 4.6 mph - N/A   Clear
4:52 PM 78.1 °F 34.0 °F 20% 29.99 in 10.0 mi Variable 3.5 mph - N/A   Clear
5:52 PM 77.0 °F 34.0 °F 21% 29.99 in 10.0 mi Calm Calm - N/A   Clear
6:52 PM 75.9 °F 34.0 °F 22% 29.99 in 10.0 mi Variable 3.5 mph - N/A   Clear
7:52 PM 73.0 °F 36.0 °F 26% 30.00 in 10.0 mi South 5.8 mph - N/A   Clear
8:52 PM 70.0 °F 36.0 °F 29% 30.02 in 10.0 mi SE 4.6 mph - N/A   Clear
9:52 PM 66.9 °F 34.0 °F 30% 30.04 in 10.0 mi WSW 4.6 mph - N/A   Clear
10:52 PM 66.9 °F 33.1 °F 28% 30.04 in 10.0 mi WSW 3.5 mph - N/A   Clear
11:52 PM 63.0 °F 32.0 °F 31% 30.05 in 10.0 mi East 5.8 mph - N/A   Clear